User: anonymous   Login
Location: Owatonna
(44.0840°N, 93.2260°W)
Time: 14:20:21
(UTC-06:00)
Language:

ALOS - Orbit

View from above orbital plane
View from above orbital plane
View from above satellite
View from above satellite

Ground track
Ground track

The orbit data is extracted from the following two-line orbital elements,

1 28931U 06002A   18021.47175132  .00000123  00000-0  32829-4 0  9997
2 28931  97.8277  42.7081 0001909  48.7117 311.4254 14.62449965639361
Epoch (UTC): 21 January 2018 11:19:19
Eccentricity: 0.0001909
inclination: 97.8277°
perigee height: 684 km
apogee height: 686 km
right ascension of ascending node: 42.7081°
argument of perigee: 48.7117°
revolutions per day: 14.62449965
mean anomaly at epoch: 311.4254°
orbit number at epoch: 63936

The dashed part of the orbit path shows where the satellite is in the earth's shadow,  

DLR